Location: Chaumontel
(49.1247°N, 2.4324°E)
Time: 00:38:43
(UTC+00:00)

IRIDIUM 103 - Pass Details

Date: 16 May 2025
Orbit: 775 x 779 km, 86.4° (Epoch: 12 June)

Event Time Altitude Azimuth Distance (km) Brightness Sun altitude
Exits shadow 02:34:53 15° 241° (WSW) 2,004 5.9 -12.2°
Maximum altitude 02:38:01 25° 287° (WNW) 1,540 5.7 -11.9°
Drops below altitude 10° 02:42:18 10° 342° (NNW) 2,343 7.2 -11.4°
Sets 02:45:05 0° 355° (N) 3,275 8.3 -11.1°
